Main page
METAR-TAF:

METAR-TAF

Airports :

Sialkot International Airport

Sialkot, Pakistan

latitude: 32-32N, longitude: 74-22E, elevation: 255 m

Current weather observation

The report was made 18 minutes ago, at 07:00 UTC
Wind 8 kt from the West
Temperature 12°C
Humidity 82%
Pressure 1022 hPa
Visibility: 3500 m
smoke

METAR: OPST 160700Z 27008KT 3500 FU NSC 12/09 Q1022 NOSIG RH82

Time: 12:18 (07:18 UTC)


TAF: missing

Weather observations and forecasts of more than 4000 airports (METAR and TAF reports).

The available stations are represented by yellow and red dots on the map.

Hover mouse over dot to see the name of the station.

Then click to see weather observations and forecasts.

To change the map : click on the green buttons with a black cross to zoom in, on the green button with a dash to zoom out, or on the green arrows for adjacent maps.


METAR-TAF: